Showing default

ASBM-2, 60423

Orbit data source: Space-Track

ASBM-2, 60423 is a Norwegian payload satellite in HEO that was launched on Mon, 12 Aug 2024 UTC via an FALCON 9 launch vehicle from the Air Force Western Test Range (AFWTR). Payload-class satellites include a variety of spacecraft equipped with specific instruments for various scientific and technological missions. These include communications satellites like Starlink; space stations such as the ISS; scientific satellites like the Hubble; Earth observation satellites from companies like Planet Labs, Umbra, and HawkEye 360; GPS; miniature CubeSats for education and research; and military/defense satellites.

Loading next visibility...
Identifier
60423, 2024-143B
Orbit
HEO
Country
Flag of NONO / NOR
Related business
Manufacturer
NGIS SSG
Mission
Operational Commercial Communications
Bus & Motor
GEOSTAR-3, BT-4?
Mass
3,505 kg wet, 1,925 kg dry
Launch date (UTC)
2024-08-12 (1 year ago)
Launch vehicle
FALCON 9
Launch site
Air Force Western Test Range (AFWTR)
Object type
Payload
Rocket body
Debris
Shape & HBR
Box + 2 Pan, 13.5 m
Radar Cross Section
35.796 m², Large (>1 m²)

Expand to show TLE details & history
Last TLE update: 1 week ago

TLE from 1 week ago
0 ASBM-2
1 60423U 24143B   25289.85643494 -.00000002  00000-0  00000-0 0  9991
2 60423  62.6395  54.9927 5498510 268.8463  31.1079  1.50424788  7943
Epoch: 2025-10-16T20:33Z
TLE epoch observation values (Epoch: 2025-10-16T20:33:15.978Z)
Latitude
0.00006°
Longitude
81.00814°
Altitude
16,336.468 km
Speed
4.765 km/s
True Right ascension
03h 39m 44s
True Declination
0° 00' 00"
Sunlit
Object was in daylight at epoch
Visualization orbit readout
Latitude
Unknown
Longitude
Unknown
Altitude
Unknown
Speed
Unknown
Apparent Right ascension
Unknown
Apparent Declination
Unknown
Sunlit
N/A
Visualization observer readout
Local Sidereal Time
03:52:59
Azimuth
Unknown
Elevation
Unknown
Doppler factor
Unknown
Orbital elements
Apogee altitude
43,488.105 km
Perigee altitude
8,105.345 km
Semi-major axis
32,174.862 km
Eccentricity
0.54985
Inclination
62.6395°
RAAN
54.9927°
Arg. of periapsis
268.8463°
True anomaly
91.31975°
Mean anomaly
31.1079°
Eccentric anomaly
57.75259°
Mean motion
0.37607 °/min
Orbital period
957.27 mins
BSTAR
0
Loading maneuver chart data...
Computing Atmospheric mass density...
Loading historical data...
Loading historical data...
Loading historical data...
Loading historical data...
Loading historical data...
Loading historical data...
Loading historical data...
Other satellites on launch #143 in the year 2024 (2024-08-12 UTC)

Documentation

Showing up to 5 results
|